Location: Heiligenberg
(48.5381°N, 7.3897°E)
Time: 21:08:59
(UTC+00:00)

Cosmos 1674 - Pass Details

Date: 26 May 2022
Orbit: 487 x 509 km, 82.5° (Epoch: 02 July)

Event Time Altitude Azimuth Distance (km) Brightness Sun altitude
Exits shadow 00:11:44 40° 255° (WSW) 757 3.3 -19.7°
Maximum altitude 00:12:21 44° 284° (WNW) 709 3.3 -19.7°
Drops below altitude 10° 00:15:59 10° 358° (N) 1,724 6.5 -19.5°
Sets 00:18:12 0° 5° (N) 2,618 7.9 -19.5°
